BMCB-35 Weather Reports


Display with metric or nautical units.
time (UTC)temp
F
wind
direction
speed
MPH
gust
MPH
rain 1hr
in
rain 24hr
in
rain mn
in
humidity
%
barometer
mb
20260506102008 56 271 3.0 6.0 0.01 0.49 0.03 90 1006.6
20260506101004 56 272 4.0 8.0 0.01 0.49 0.03 90 1006.6
20260506100005 55 265 5.0 9.0 0.01 0.49 0.03 90 1006.6
20260506095038 55 265 5.0 9.0 0.01 0.49 0.03 90 1006.6
20260506095031 55 265 5.0 9.0 0.01 0.49 0.03 94 1006.5
20260506094017 55 264 4.0 7.0 0.01 0.49 0.03 94 1006.5
20260506094015 55 264 4.0 7.0 0.01 0.49 0.03 95 1006.5
20260506093043 55 264 4.0 7.0 0.01 0.49 0.03 95 1006.5
20260506093038 55 264 4.0 7.0 0.01 0.49 0.03 95 1006.4
20260506092040 55 272 4.0 8.0 0.01 0.49 0.03 95 1006.4
20260506092034 55 272 4.0 8.0 0.00 0.48 0.02 96 1006.3
20260506091042 55 269 3.0 6.0 0.00 0.48 0.02 96 1006.3
20260506091036 55 269 3.0 6.0 0.00 0.48 0.02 95 1006.3
20260506090040 55 291 3.0 7.0 0.00 0.48 0.02 95 1006.3
20260506090033 55 291 3.0 7.0 0.00 0.48 0.02 93 1006.2
20260506085044 55 287 2.0 6.0 0.00 0.48 0.02 93 1006.2
20260506085039 55 287 2.0 6.0 0.00 0.48 0.02 92 1006.1
20260506084034 55 298 3.0 9.0 0.00 0.48 0.02 92 1006.1
20260506083042 55 280 3.0 7.0 0.00 0.48 0.02 92 1006.1
20260506083037 55 280 3.0 7.0 0.00 0.48 0.02 93 1006.0
20260506082014 55 282 3.0 7.0 0.00 0.48 0.02 93 1006.0
20260506082012 55 282 3.0 7.0 0.00 0.48 0.02 92 1005.9
20260506081014 55 278 4.0 6.0 0.00 0.48 0.02 93 1005.9
20260506073046 54 281 4.0 7.0 0.00 0.48 0.02 96 1006.0
20260506073040 53 281 4.0 7.0 0.00 0.48 0.02 97 1006.0
20260506072004 53 308 3.0 7.0 0.00 0.48 0.02 98 1006.1
20260506062037 52 318 1.0 3.0 0.02 0.48 0.02 99 1006.1
20260506062031 52 318 1.0 3.0 0.02 0.48 0.02 99 1006.1
20260506061005 51 346 1.0 4.0 0.02 0.48 0.02 98 1006.0
20260506051025 51 354 1.0 6.0 0.00 0.46 0.01 98 1005.9
20260506045037 51 17 1.0 2.0 0.00 0.46 0.01 97 1005.8
20260506044016 51 3 2.0 4.0 0.00 0.46 0.01 97 1005.8
20260506043024 51 3 2.0 4.0 0.00 0.46 0.01 97 1006.0
20260506042028 51 24 1.0 4.0 0.00 0.46 0.01 97 1006.0
20260506041029 51 316 1.0 3.0 0.00 0.46 0.01 97 1006.0
20260506040042 51 4 1.0 3.0 0.00 0.46 0.01 97 1006.0
20260506040037 51 4 1.0 3.0 0.00 0.46 0.01 97 1006.1
20260506035036 51 11 1.0 3.0 0.00 0.46 0.01 97 1006.2
20260506034005 51 4 1.0 2.0 0.00 0.46 0.01 97 1006.2
20260506033042 51 4 1.0 2.0 0.00 0.46 0.01 97 1006.3
20260506033038 51 4 1.0 2.0 0.00 0.46 0.01 97 1006.4
20260506032038 51 74 1.0 4.0 0.00 0.46 0.01 97 1006.4
20260506032033 51 74 1.0 4.0 0.00 0.46 0.01 98 1006.5
20260506031003 51 55 1.0 4.0 0.00 0.46 0.01 98 1006.5
20260506030004 51 103 1.0 4.0 0.00 0.46 0.01 98 1006.5
20260506025034 52 103 1.0 4.0 0.00 0.46 0.01 99 1006.4
20260506024024 52 66 1.0 3.0 0.00 0.46 0.01 99 1006.4
20260506023043 52 94 1.0 2.0 0.00 0.46 0.01 99 1006.3
20260506022035 52 93 1.0 3.0 0.00 0.46 0.01 99 1006.3
20260506021012 52 75 1.0 3.0 0.00 0.46 0.01 99 1006.3
20260506020011 52 70 0.0 2.0 0.00 0.46 0.01 99 1006.3
20260506015040 52 70 0.0 2.0 0.00 0.46 0.01 99 1006.3
20260506015035 53 70 0.0 2.0 0.00 0.46 0.01 99 1006.3
20260506014044 53 94 0.0 3.0 0.00 0.46 0.01 99 1006.3
20260506014039 53 94 0.0 3.0 0.00 0.46 0.01 99 1006.4
20260506013033 53 50 0.0 2.0 0.00 0.46 0.01 99 1006.5
20260506012023 53 327 1.0 4.0 0.00 0.46 0.01 99 1006.6
20260506011005 53 74 1.0 4.0 0.01 0.46 0.01 99 1006.7
20260506010037 53 74 1.0 4.0 0.01 0.46 0.01 99 1006.7
20260506010031 53 74 1.0 4.0 0.01 0.46 0.01 10 1006.9
20260506005009 53 19 1.0 3.0 0.01 0.46 0.01 99 1007.0
20260506004034 53 19 1.0 3.0 0.01 0.46 0.01 99 1007.0
20260506004029 53 19 1.0 3.0 0.01 0.46 0.01 10 1007.0
20260506003043 53 42 0.0 2.0 0.01 0.46 0.01 10 1007.1
20260506002042 52 26 1.0 3.0 0.01 0.46 0.01 10 1007.3
20260506001035 52 72 0.0 3.0 0.01 0.46 0.01 10 1007.3
20260506001029 51 72 0.0 3.0 0.00 0.46 0.00 10 1007.4
20260506000010 51 12 0.0 1.0 0.00 0.46 0.00 10 1007.4
20260505235017 51 45 0.0 2.0 0.00 0.46 0.00 10 1007.4
20260505235015 52 45 0.0 2.0 0.00 0.46 0.00 10 1007.4
20260505234137 51 45 0.0 2.0 0.00 0.46 0.00 10 1007.5
20260505233038 51 69 1.0 2.0 0.00 0.46 0.00 10 1007.5
20260505232030 51 113 1.0 2.0 0.00 0.46 0.00 10 1007.5
20260505231004 51 138 0.0 0.0 0.00 0.46 0.00 10 1007.5
20260505230008 51 138 0.0 0.0 0.00 0.46 0.00 10 1007.5
20260505225016 51 154 0.0 0.0 0.00 0.46 0.00 10 1007.5
20260505225013 51 154 0.0 0.0 0.00 0.46 0.00 10 1007.4
20260505224015 52 158 0.0 0.0 0.00 0.46 0.00 10 1007.5
20260505223015 52 99 1.0 1.0 0.00 0.46 0.00 10 1007.5
20260505222043 52 102 0.0 1.0 0.00 0.46 0.00 10 1007.5
20260505222036 52 102 0.0 1.0 0.00 0.46 0.00 10 1007.6
20260505221049 52 124 0.0 0.0 0.00 0.46 0.00 10 1007.6
20260505221043 52 124 0.0 0.0 0.00 0.46 0.00 10 1007.7
20260505220008 52 141 0.0 0.0 0.00 0.46 0.00 10 1007.7
20260505220005 52 131 0.0 0.0 0.00 0.46 0.00 10 1007.7
20260505215036 52 131 0.0 0.0 0.00 0.46 0.46 10 1007.7
20260505214047 52 126 0.0 0.0 0.00 0.46 0.46 10 1007.7
20260505214038 53 126 0.0 0.0 0.00 0.46 0.46 10 1007.7
20260505213041 53 133 0.0 0.0 0.00 0.46 0.46 10 1007.7
20260505212005 53 155 0.0 0.0 0.00 0.46 0.46 10 1007.7
20260505211041 54 155 0.0 0.0 0.00 0.46 0.46 99 1007.8
20260505210013 54 129 0.0 0.0 0.00 0.46 0.46 99 1007.8
20260505210011 54 129 0.0 0.0 0.00 0.46 0.46 99 1007.7
20260505205043 54 141 0.0 2.0 0.00 0.46 0.46 99 1007.7
20260505205037 54 141 0.0 2.0 0.00 0.46 0.46 97 1007.8
20260505203048 54 244 1.0 3.0 0.00 0.46 0.46 97 1007.8
20260505203039 54 244 1.0 3.0 0.00 0.46 0.46 98 1007.7
20260505202016 54 38 1.0 2.0 0.00 0.46 0.46 98 1007.7
20260505201011 54 83 0.0 3.0 0.00 0.46 0.46 98 1007.6
20260505200007 54 81 0.0 1.0 0.01 0.46 0.46 98 1007.6
20260505200005 55 81 0.0 1.0 0.01 0.46 0.46 98 1007.5
20260505194027 55 114 0.0 3.0 0.02 0.46 0.46 10 1007.3
20260505193044 55 132 0.0 0.0 0.06 0.46 0.46 10 1007.3
20260505193035 55 132 0.0 0.0 0.06 0.46 0.46 10 1007.2
20260505192011 55 125 0.0 0.0 0.06 0.46 0.46 10 1007.2
20260505191011 55 112 0.0 0.0 0.10 0.46 0.46 10 1007.1
20260505190046 55 130 0.0 0.0 0.20 0.46 0.46 10 1007.1
20260505190037 55 130 0.0 0.0 0.19 0.45 0.45 10 1007.1
20260505185049 55 92 0.0 0.0 0.23 0.44 0.44 10 1007.1
20260505185044 55 92 0.0 0.0 0.22 0.43 0.43 10 1007.1
20260505184038 55 96 0.0 0.0 0.28 0.43 0.43 99 1007.1
20260505183009 55 39 0.0 0.0 0.31 0.43 0.43 99 1007.1
20260505181036 56 89 0.0 2.0 0.25 0.35 0.35 98 1007.1
20260505180013 56 82 1.0 4.0 0.20 0.31 0.31 98 1007.1
20260505175022 56 72 0.0 2.0 0.16 0.26 0.26 98 1007.1
20260505175014 56 72 0.0 2.0 0.11 0.21 0.21 96 1007.2
20260505174033 56 59 1.0 2.0 0.11 0.21 0.21 96 1007.2
20260505174024 57 59 1.0 2.0 0.05 0.15 0.15 96 1007.2
20260505173004 57 142 0.0 1.0 0.02 0.12 0.12 95 1007.2
20260505172045 57 142 0.0 1.0 0.00 0.10 0.10 94 1007.3
20260505171045 57 147 0.0 2.0 0.00 0.10 0.10 93 1007.3
20260505165005 57 178 0.0 0.0 0.00 0.10 0.10 93 1007.3
20260505164012 58 178 0.0 0.0 0.00 0.10 0.10 91 1007.3
20260505163045 58 153 0.0 0.0 0.00 0.10 0.10 88 1007.3
20260505162004 58 78 1.0 2.0 0.00 0.10 0.10 85 1007.3
20260505161023 58 78 1.0 2.0 0.00 0.10 0.10 87 1007.4
20260505153019 57 83 1.0 3.0 0.01 0.10 0.10 89 1007.7
20260505152038 57 87 1.0 2.0 0.01 0.10 0.10 91 1007.7
20260505151039 57 99 1.0 2.0 0.01 0.10 0.10 91 1007.8
20260505125012 57 58 1.0 2.0 0.03 0.06 0.06 88 1008.7
20260505124009 57 289 2.0 4.0 0.02 0.05 0.05 87 1008.8
20260505123029 57 289 2.0 4.0 0.03 0.05 0.05 89 1008.8
20260505122009 57 284 1.0 2.0 0.03 0.05 0.05 89 1008.9
20260505121039 57 284 1.0 2.0 0.02 0.04 0.04 89 1008.9
20260505121030 57 284 1.0 2.0 0.02 0.03 0.03 88 1009.0
20260505120006 57 310 2.0 3.0 0.01 0.02 0.02 88 1009.1
20260505115012 57 310 2.0 3.0 0.02 0.02 0.02 88 1009.1
20260505114024 57 90 2.0 6.0 0.02 0.02 0.02 88 1009.1
20260505113022 57 13 1.0 4.0 0.02 0.02 0.02 88 1009.1
20260505113017 56 13 1.0 4.0 0.02 0.02 0.02 90 1009.1
20260505112040 56 64 2.0 5.0 0.02 0.02 0.02 90 1009.1
20260505111004 56 67 2.0 4.0 0.02 0.02 0.02 90 1009.1